EW9530 Weather Reports


time (UTC)temp
F
wind
direction
speed
knots
gust
knots
rain 1hr
in
rain 24hr
in
rain mn
in
humidity
%
barometer
mb
20260504184650 63 140 0.0 0.9 0.00 0.06 0.06 87 1012.1
20260504183136 63 140 0.0 4.3 0.00 0.06 0.06 85 1012.0
20260504181651 62 163 0.0 1.7 0.00 0.06 0.06 88 1011.7
20260504180149 63 18 0.0 3.5 0.00 0.06 0.06 87 1011.5
20260504174651 63 37 0.0 1.7 0.00 0.06 0.06 86 1011.4
20260504173156 64 155 0.0 0.9 0.00 0.06 0.06 84 1011.5
20260504171650 64 155 0.0 0.0 0.00 0.06 0.06 82 1011.8
20260504160147 65 107 0.0 5.2 0.00 0.06 0.06 84 1012.0
20260504140149 60 119 0.0 3.5 0.05 0.05 0.05 86 1013.0
20260504100149 68 360 0.0 4.3 0.00 0.00 0.00 67 1013.2
20260504081652 63 15 0.0 3.5 0.00 0.00 0.00 81 1014.2
20260504080148 62 28 0.9 4.3 0.00 0.00 0.00 83 1014.3
20260504060147 58 355 0.9 5.2 0.00 0.00 0.00 89 1014.5
20260504044652 57 26 0.0 0.9 0.00 0.00 0.00 91 1014.7
20260504043156 57 26 0.0 0.0 0.00 0.00 0.00 91 1014.9
20260504041651 57 26 0.0 0.0 0.00 0.00 0.00 90 1014.8
20260504034651 58 26 0.0 0.0 0.00 0.00 0.00 89 1014.7
20260504033155 58 26 0.0 1.7 0.00 0.00 0.00 88 1014.8
20260504031651 58 278 0.0 1.7 0.00 0.00 0.00 88 1014.7
20260504024652 58 292 0.0 2.6 0.00 0.00 0.00 88 1014.9
20260504023140 58 17 0.0 0.0 0.00 0.00 0.00 89 1014.9
20260504021650 58 17 0.0 0.0 0.00 0.00 0.00 89 1014.9
20260504020150 58 17 0.0 0.0 0.00 0.00 0.00 89 1014.9
20260504014650 59 17 0.0 0.0 0.00 0.00 0.00 88 1015.1
20260504013200 58 17 0.0 0.0 0.00 0.00 0.00 90 1015.1
20260504011650 58 17 0.0 0.0 0.00 0.00 0.00 90 1015.3
20260504010146 59 17 0.0 0.0 0.00 0.00 0.00 89 1015.4
20260504004651 59 17 0.0 0.0 0.00 0.00 0.00 89 1015.5
20260504003157 59 17 0.0 0.0 0.00 0.00 0.00 89 1015.5
20260504001652 59 101 0.0 0.0 0.00 0.00 0.00 88 1015.6
20260503234651 59 196 0.0 0.0 0.00 0.00 0.00 89 1015.6
20260503233156 59 196 0.0 0.0 0.00 0.00 0.00 88 1015.7
20260503231650 59 196 0.0 0.0 0.00 0.00 0.00 87 1015.7
20260503230151 59 196 0.0 0.0 0.00 0.00 0.00 87 1015.7
20260503224502 59 196 0.0 0.0 0.00 0.00 0.00 87 1015.7
20260503223156 59 196 0.0 0.9 0.00 0.00 0.00 87 1015.6
20260503221653 59 163 0.0 1.7 0.00 0.00 0.00 87 1015.8
20260503214650 60 146 0.0 0.0 0.00 0.00 0.00 84 1015.5
20260503213156 61 146 0.0 0.0 0.00 0.00 0.00 83 1015.8
20260503211650 60 146 0.0 0.0 0.00 0.00 0.00 82 1015.9
20260503204653 61 146 0.0 1.7 0.00 0.00 0.00 82 1016.1
20260503203140 61 146 0.0 0.0 0.00 0.00 0.00 81 1016.0
20260503201652 61 146 0.0 0.9 0.00 0.00 0.00 81 1016.1
20260503194651 61 162 0.0 5.2 0.00 0.00 0.00 80 1016.1
20260503193141 61 184 1.7 4.3 0.00 0.00 0.00 78 1016.0
20260503191656 61 140 1.7 3.5 0.00 0.00 0.00 77 1015.6
20260503190148 61 138 0.0 1.7 0.00 0.00 0.00 75 1015.5